Date,TemperatureHighF,TemperatureAvgF,TemperatureLowF,DewpointHighF,DewpointAvgF,DewpointLowF,HumidityHigh,HumidityAvg,HumidityLow,PressureMaxIn,PressureMinIn,WindSpeedMaxMPH,WindSpeedAvgMPH,GustSpeedMaxMPH,PrecipitationSumIn
2013-7-1,73.9,70.8,67.1,72.0,69.9,67.0,98,97,92,30.04,29.89,3,0,6,0.53
2013-7-2,81.1,71.6,61.1,74.0,68.9,61.0,98,91,76,30.17,30.02,6,1,11,0.00
2013-7-3,84.3,73.6,60.2,74.0,68.7,60.0,98,85,68,30.17,30.10,7,2,11,0.00
2013-7-4,88.7,80.5,72.4,75.0,72.3,70.0,93,77,60,30.16,30.05,7,2,13,0.00
2013-7-5,90.0,81.6,73.5,76.0,73.0,71.0,92,76,60,30.11,29.99,8,2,13,0.00
2013-7-6,84.7,78.0,72.9,73.0,69.4,62.0,90,75,52,30.04,29.95,7,2,18,0.00
2013-7-7,88.0,77.1,68.8,77.0,68.0,60.0,95,74,59,29.99,29.88,6,1,10,0.00
2013-7-8,86.9,74.8,65.6,74.0,69.3,64.0,97,84,55,30.03,29.87,5,1,11,0.00
2013-7-9,72.7,67.1,62.1,68.0,65.2,61.0,98,93,84,30.07,30.01,2,0,6,0.00
2013-7-10,80.1,70.0,64.5,76.0,68.8,64.0,98,96,83,30.05,29.76,4,1,10,0.76
2013-7-11,81.1,73.5,64.9,73.0,69.6,61.0,98,88,69,29.92,29.74,5,1,8,0.00
2013-7-12,77.0,68.8,60.3,66.0,61.0,58.0,95,77,57,30.18,29.92,7,1,11,0.00
2013-7-13,75.8,67.2,58.8,71.0,64.1,58.0,97,90,78,30.29,30.18,2,0,6,0.00
2013-7-14,86.5,76.0,65.2,74.0,70.0,65.0,98,83,59,30.28,30.18,7,1,11,0.01
2013-7-15,89.7,76.5,64.3,74.0,69.2,64.0,98,80,53,30.18,30.08,6,1,9,0.00
2013-7-16,89.7,78.7,67.3,72.0,67.9,65.0,96,71,51,30.14,30.09,6,1,13,0.00
2013-7-17,90.6,78.1,62.5,74.0,68.9,62.0,98,76,51,30.15,29.95,4,1,10,0.00
2013-7-18,90.7,81.0,70.9,78.0,72.3,69.0,94,76,50,29.97,29.89,6,1,12,0.00
2013-7-19,92.2,82.7,68.6,76.0,72.2,68.0,97,72,52,29.90,29.67,12,3,19,0.00
2013-7-20,86.6,78.5,68.0,73.0,67.4,62.0,82,69,60,29.77,29.62,10,2,16,0.00
2013-7-21,81.3,71.5,61.8,70.0,64.4,60.0,97,79,59,29.96,29.78,5,0,7,0.00
2013-7-22,79.5,67.3,57.4,70.0,64.4,57.0,98,91,72,30.00,29.86,4,0,9,0.00
2013-7-23,77.6,68.2,64.6,72.0,66.8,64.0,98,96,80,29.86,29.51,3,0,6,1.48
2013-7-24,78.9,70.6,57.3,70.0,64.1,52.0,98,81,60,29.95,29.56,7,2,15,0.00
2013-7-25,66.9,59.4,53.5,58.0,53.6,47.0,97,81,67,30.09,29.95,6,1,11,0.02
2013-7-26,71.6,63.3,59.0,66.0,60.3,58.0,97,90,75,30.06,29.94,13,1,13,0.37
2013-7-27,81.5,68.7,55.1,67.0,60.5,54.0,97,78,48,30.03,29.96,5,1,10,0.00
2013-7-28,79.9,67.9,55.9,70.0,63.9,55.0,98,88,62,29.99,29.94,5,1,7,0.14
2013-7-29,82.9,70.1,59.8,71.0,65.4,58.0,98,86,49,30.02,29.92,6,1,7,0.00
2013-7-30,77.0,67.4,57.2,59.0,56.9,54.0,95,71,46,30.08,30.01,10,2,13,0.00
2013-7-31,79.0,67.0,56.5,66.0,59.0,55.0,96,78,45,30.11,30.02,3,0,9,0.00